Regional Weather Roundup
Issued by NWS Glasgow, MT

Home | Current Version | Previous Version | Text Only | Print | Product List | Glossary On
Versions: 1 2 3 4 5 6 7 8 9 10 11 12 13 14 15 16 17 18 19 20 21 22 23 24 25 26 27
000
ASUS45 KGGW 251915
RWRGGW
HOURLY REGIONAL WEATHER ROUNDUP FOR NORTHEAST MONTANA
NATIONAL WEATHER SERVICE GLASGOW MONTANA
100 PM MDT WED MAY 25 2016

NOTE: "FAIR" INDICATES FEW OR NO CLOUDS BELOW 12,000 FEET WITH NO
SIGNIFICANT WEATHER AND/OR OBSTRUCTIONS TO VISISBILITY.

NORTHEAST MONTANA


CITY           SKY/WX    TMP DP  RH WIND       PRES   REMARKS
GLASGOW        MOSUNNY   63  43  48 S5        29.85F
PLENTYWOOD       N/A     54  49  83 N10G18      N/A
WOLF POINT     CLOUDY    60  48  64 E8        29.88S
JORDAN           N/A     67  42  40 N8        29.85F
WINNETT          N/A     61  36  39 W3G15       N/A
SIDNEY         CLOUDY    55  46  71 N18       29.86S
GLENDIVE       PTSUNNY   54  46  76 N13       29.91S
MALTA            N/A     65  45  48 W5          N/A
SCOBEY           N/A     55  41  59 N8        29.87F
OPHEIM           N/A     55  41  58 W8        29.72F

FORT PECK REPORTS


CITY           SKY/WX    TMP DP  RH WIND       PRES   REMARKS
FORT PECK        N/A     61  46  57 S3          N/A
THE PINES        N/A     61  40  45 NE3         N/A

SOUTHEAST MONTANA


CITY           SKY/WX    TMP DP  RH WIND       PRES   REMARKS
BILLINGS       MOSUNNY   64  44  48 VRB6      29.89F
MILES CITY     PTSUNNY   64  46  52 CALM      29.86F
BAKER          CLOUDY    57  44  62 NW14G22   29.89S
LIVINGSTON     PTSUNNY   62  35  36 SW22G30   29.93S

CENTRAL MONTANA


CITY           SKY/WX    TMP DP  RH WIND       PRES   REMARKS
HAVRE            N/A    N/A N/A N/A MISG      29.85F
LEWISTOWN      PTSUNNY   62  36  37 SW17      29.89S
GREAT FALLS    PTSUNNY   63  37  38 VRB6      29.87F
CUT BANK       PTSUNNY   65  43  44 W9        29.86S
HELENA         MOSUNNY   64  38  38 W13       29.93F
BUTTE          PTSUNNY   54  32  43 N8G16     30.01F
BOZEMAN        MOSUNNY   59  39  47 NW10      29.97F

WESTERN MONTANA


CITY           SKY/WX    TMP DP  RH WIND       PRES   REMARKS
MISSOULA       MOSUNNY   60  43  53 CALM      30.01F
KALISPELL      NOT AVBL

NORTH DAKOTA


CITY           SKY/WX    TMP DP  RH WIND       PRES   REMARKS
WILLISTON      LGT RAIN  53  49  86 N15G26    29.84R
DICKINSON      CLOUDY    57  49  74 W16       29.80R
MINOT          CLOUDY    63  56  78 E6        29.79F
BISMARCK       CLOUDY    64  58  80 E8        29.78F

SOUTHERN SASKATCHEWAN


CITY           SKY/WX    TMP DP  RH WIND       PRES   REMARKS
REGINA         CLOUDY    54  48  82 NW8       29.89R
MOOSE JAW      LGT RAIN  52  50  93 SE3       29.90S
ESTEVAN        LGT RAIN  55  54  94 E6        29.83S
SWIFT CURRENT  PTSUNNY   55  48  76 VRB5      29.87F





USA.gov is the U.S. government's official web portal to all federal, state and local government web resources and services.